Time,TemperatureF,DewpointF,PressureIn,WindDirection,WindDirectionDegrees,WindSpeedMPH,WindSpeedGustMPH,Humidity,HourlyPrecipIn,Conditions,Clouds,dailyrainin,SoftwareType,DateUTC
2013-02-07 00:03:00,73.0,63.5,30.00,NNE,19,0.0,0.0,72,0.00,,SCT120,0.00,VWS V14.01,2013-02-07 04:03:00,
2013-02-07 00:08:00,73.2,63.3,30.00,NNE,19,0.0,0.0,71,0.00,,SCT120,0.00,VWS V14.01,2013-02-07 04:08:00,
2013-02-07 00:13:00,73.2,63.7,30.00,NNE,19,0.0,0.0,72,0.00,,SCT120,0.00,VWS V14.01,2013-02-07 04:13:00,
2013-02-07 00:18:00,73.0,63.1,30.00,NNE,19,0.0,0.0,71,0.00,,SCT120,0.00,VWS V14.01,2013-02-07 04:18:00,
2013-02-07 00:23:00,73.0,63.1,30.00,NNE,19,0.0,0.0,71,0.00,,SCT120,0.00,VWS V14.01,2013-02-07 04:23:00,
2013-02-07 00:28:00,72.9,62.9,30.00,NNE,19,0.0,0.0,71,0.00,,SCT120,0.00,VWS V14.01,2013-02-07 04:28:00,
2013-02-07 00:33:00,72.9,62.9,30.00,NNE,19,0.0,0.0,71,0.00,,SCT120,0.00,VWS V14.01,2013-02-07 04:33:00,
2013-02-07 00:38:00,72.9,62.9,30.00,NNE,19,0.0,0.0,71,0.00,,SCT120,0.00,VWS V14.01,2013-02-07 04:38:00,
2013-02-07 00:43:00,72.9,62.9,30.00,NNE,19,0.0,0.0,71,0.00,,SCT120,0.00,VWS V14.01,2013-02-07 04:43:00,
2013-02-07 00:48:00,72.9,62.9,30.00,NNE,19,0.0,0.0,71,0.00,,SCT120,0.00,VWS V14.01,2013-02-07 04:48:00,
2013-02-07 00:53:00,72.7,62.7,30.00,NNE,19,0.0,0.0,71,0.00,,SCT120,0.00,VWS V14.01,2013-02-07 04:53:00,
2013-02-07 00:58:00,72.3,62.4,30.00,NNE,19,0.0,0.0,71,0.00,,SCT120,0.00,VWS V14.01,2013-02-07 04:58:00,
2013-02-07 01:00:00,72.3,62.4,30.00,NNE,19,0.0,0.0,71,0.00,,SCT120,0.00,VWS V14.01,2013-02-07 05:00:00,
2013-02-07 01:01:00,72.3,62.4,30.00,NNE,19,0.0,0.0,71,0.00,,SCT120,0.00,VWS V14.01,2013-02-07 05:01:00,
2013-02-07 01:06:00,72.3,62.8,30.00,NNE,19,0.0,0.0,72,0.00,,SCT120,0.00,VWS V14.01,2013-02-07 05:06:00,
2013-02-07 01:11:00,72.3,62.8,30.00,NNE,19,0.0,0.0,72,0.00,,SCT120,0.00,VWS V14.01,2013-02-07 05:11:00,
2013-02-07 01:16:00,72.3,62.8,30.00,NNE,19,0.0,0.0,72,0.00,,SCT120,0.00,VWS V14.01,2013-02-07 05:16:00,
2013-02-07 01:21:00,72.3,62.8,30.00,NNE,19,0.0,0.0,72,0.00,,SCT120,0.00,VWS V14.01,2013-02-07 05:21:00,
2013-02-07 01:26:00,72.1,62.6,30.00,NNE,19,0.0,0.0,72,0.00,,SCT120,0.00,VWS V14.01,2013-02-07 05:26:00,
2013-02-07 01:31:00,72.0,62.5,30.00,NNE,19,0.0,0.0,72,0.00,,SCT120,0.00,VWS V14.01,2013-02-07 05:31:00,
2013-02-07 01:36:00,72.0,62.5,29.97,NNE,19,0.0,0.0,72,0.00,,SCT120,0.00,VWS V14.01,2013-02-07 05:36:00,
2013-02-07 01:41:00,71.8,61.9,29.97,NNE,19,0.0,0.0,71,0.00,,SCT120,0.00,VWS V14.01,2013-02-07 05:41:00,
2013-02-07 01:46:00,71.4,61.9,29.97,NNE,19,0.0,0.0,72,0.00,,SCT120,0.00,VWS V14.01,2013-02-07 05:46:00,
2013-02-07 01:51:00,71.4,62.3,29.97,NNE,19,0.0,0.0,73,0.00,,SCT120,0.00,VWS V14.01,2013-02-07 05:51:00,
2013-02-07 01:56:00,71.4,62.7,29.97,NNE,19,0.0,0.0,74,0.00,,SCT120,0.00,VWS V14.01,2013-02-07 05:56:00,
2013-02-07 02:02:00,71.6,62.9,29.97,NNE,19,0.0,0.0,74,0.00,,SCT120,0.00,VWS V14.01,2013-02-07 06:02:00,
2013-02-07 02:07:00,71.8,63.1,29.97,NNE,19,0.0,0.0,74,0.00,,SCT120,0.00,VWS V14.01,2013-02-07 06:07:00,
2013-02-07 02:12:00,71.8,63.4,29.97,NNE,19,0.0,0.0,75,0.00,,SCT120,0.00,VWS V14.01,2013-02-07 06:12:00,
2013-02-07 02:17:00,71.6,62.9,29.97,NNE,19,0.0,0.0,74,0.00,,SCT120,0.00,VWS V14.01,2013-02-07 06:17:00,
2013-02-07 02:22:00,71.4,62.7,29.97,NNE,19,0.0,0.0,74,0.00,,SCT120,0.00,VWS V14.01,2013-02-07 06:22:00,
2013-02-07 02:27:00,71.2,62.5,29.97,NNE,19,0.0,0.0,74,0.00,,SCT120,0.00,VWS V14.01,2013-02-07 06:27:00,
2013-02-07 02:32:00,71.2,62.9,29.97,NNE,19,0.0,0.0,75,0.00,,SCT120,0.00,VWS V14.01,2013-02-07 06:32:00,
2013-02-07 02:37:00,71.2,62.9,29.97,NNE,19,0.0,0.0,75,0.00,,SCT120,0.00,VWS V14.01,2013-02-07 06:37:00,
2013-02-07 02:42:00,71.2,62.9,29.97,NNE,19,0.0,0.0,75,0.00,,SCT120,0.00,VWS V14.01,2013-02-07 06:42:00,
2013-02-07 02:47:00,71.1,62.7,29.97,NNE,19,0.0,0.0,75,0.00,,SCT120,0.00,VWS V14.01,2013-02-07 06:47:00,
2013-02-07 02:52:00,71.1,62.7,29.94,NNE,19,0.0,0.0,75,0.00,,SCT120,0.00,VWS V14.01,2013-02-07 06:52:00,
2013-02-07 02:57:00,71.1,62.7,29.94,NNE,19,0.0,0.0,75,0.00,,SCT120,0.00,VWS V14.01,2013-02-07 06:57:00,
2013-02-07 03:02:00,71.1,63.1,29.94,NNE,19,0.0,0.0,76,0.00,,SCT120,0.00,VWS V14.01,2013-02-07 07:02:00,
2013-02-07 03:07:00,70.9,63.0,29.94,NNE,19,0.0,0.0,76,0.00,,SCT120,0.00,VWS V14.01,2013-02-07 07:07:00,
2013-02-07 03:12:00,70.7,62.8,29.94,NNE,19,0.0,0.0,76,0.00,,SCT120,0.00,VWS V14.01,2013-02-07 07:12:00,
2013-02-07 03:17:00,70.7,62.8,29.94,NNE,19,0.0,0.0,76,0.00,,SCT120,0.00,VWS V14.01,2013-02-07 07:17:00,
2013-02-07 03:22:00,70.7,62.8,29.94,NNE,19,0.0,0.0,76,0.00,,SCT120,0.00,VWS V14.01,2013-02-07 07:22:00,
2013-02-07 03:27:00,70.7,62.8,29.94,NNE,19,0.0,0.0,76,0.00,,SCT120,0.00,VWS V14.01,2013-02-07 07:27:00,
2013-02-07 03:32:00,70.5,62.6,29.94,NNE,19,0.0,0.0,76,0.00,,SCT120,0.00,VWS V14.01,2013-02-07 07:32:00,
2013-02-07 03:37:00,70.5,63.0,29.94,NNE,19,0.0,0.0,77,0.00,,SCT120,0.00,VWS V14.01,2013-02-07 07:37:00,
2013-02-07 03:42:00,70.5,63.0,29.94,NNE,19,0.0,0.0,77,0.00,,SCT120,0.00,VWS V14.01,2013-02-07 07:42:00,
2013-02-07 03:47:00,70.5,63.0,29.94,NNE,19,0.0,0.0,77,0.00,,SCT120,0.00,VWS V14.01,2013-02-07 07:47:00,
2013-02-07 03:52:00,70.5,63.0,29.94,NNE,19,0.0,0.0,77,0.00,,SCT120,0.00,VWS V14.01,2013-02-07 07:52:00,
2013-02-07 03:57:00,70.3,62.8,29.94,NNE,19,0.0,0.0,77,0.00,,SCT120,0.00,VWS V14.01,2013-02-07 07:57:00,
2013-02-07 04:02:00,70.0,62.1,29.94,NNE,19,0.0,0.0,76,0.00,,SCT120,0.00,VWS V14.01,2013-02-07 08:02:00,
2013-02-07 04:07:00,70.0,62.5,29.94,NNE,19,0.0,0.0,77,0.00,,SCT120,0.00,VWS V14.01,2013-02-07 08:07:00,
2013-02-07 04:12:00,70.0,62.5,29.94,NNE,19,0.0,0.0,77,0.00,,SCT120,0.00,VWS V14.01,2013-02-07 08:12:00,
2013-02-07 04:17:00,69.8,62.3,29.94,NNE,19,0.0,0.0,77,0.00,,SCT120,0.00,VWS V14.01,2013-02-07 08:17:00,
2013-02-07 04:22:00,69.6,62.1,29.94,NNE,19,0.0,0.0,77,0.00,,SCT120,0.00,VWS V14.01,2013-02-07 08:22:00,
2013-02-07 04:27:00,69.6,62.5,29.94,NNE,19,0.0,0.0,78,0.00,,SCT120,0.00,VWS V14.01,2013-02-07 08:27:00,
2013-02-07 04:32:00,69.4,62.3,29.94,NNE,19,0.0,0.0,78,0.00,,SCT120,0.00,VWS V14.01,2013-02-07 08:32:00,
2013-02-07 04:37:00,69.4,62.3,29.94,NNE,19,0.0,0.0,78,0.00,,SCT120,0.00,VWS V14.01,2013-02-07 08:37:00,
2013-02-07 04:42:00,69.4,62.3,29.94,NNE,19,0.0,0.0,78,0.00,,SCT120,0.00,VWS V14.01,2013-02-07 08:42:00,
2013-02-07 04:47:00,69.3,62.5,29.94,NNE,19,0.0,0.0,79,0.00,,SCT120,0.00,VWS V14.01,2013-02-07 08:47:00,
2013-02-07 04:52:00,69.3,62.5,29.94,NNE,19,0.0,0.0,79,0.00,,SCT120,0.00,VWS V14.01,2013-02-07 08:52:00,
2013-02-07 04:57:00,69.1,62.3,29.94,NNE,19,0.0,0.0,79,0.00,,SCT120,0.00,VWS V14.01,2013-02-07 08:57:00,
2013-02-07 05:02:00,69.3,62.5,29.94,NNE,19,0.0,0.0,79,0.00,,SCT120,0.00,VWS V14.01,2013-02-07 09:02:00,
2013-02-07 05:07:00,69.3,62.8,29.94,NNE,19,0.0,0.0,80,0.00,,SCT120,0.00,VWS V14.01,2013-02-07 09:07:00,
2013-02-07 05:12:00,69.3,62.8,29.94,NNE,19,0.0,0.0,80,0.00,,SCT120,0.00,VWS V14.01,2013-02-07 09:12:00,
2013-02-07 05:17:00,69.3,62.8,29.94,NNE,19,0.0,0.0,80,0.00,,SCT120,0.00,VWS V14.01,2013-02-07 09:17:00,
2013-02-07 05:22:00,69.3,62.8,29.94,NNE,19,0.0,0.0,80,0.00,,SCT120,0.00,VWS V14.01,2013-02-07 09:22:00,
2013-02-07 05:27:00,69.3,62.8,29.94,NNE,19,0.0,0.0,80,0.00,,SCT120,0.00,VWS V14.01,2013-02-07 09:27:00,
2013-02-07 05:32:00,69.3,62.8,29.94,NNE,19,0.0,0.0,80,0.00,,SCT120,0.00,VWS V14.01,2013-02-07 09:32:00,
2013-02-07 05:37:00,69.4,63.0,29.97,NNE,19,0.0,0.0,80,0.00,,SCT120,0.00,VWS V14.01,2013-02-07 09:37:00,
2013-02-07 05:42:00,69.4,63.0,29.97,NNE,19,0.0,0.0,80,0.00,,SCT120,0.00,VWS V14.01,2013-02-07 09:42:00,
2013-02-07 05:47:00,69.4,63.0,29.97,NNE,19,0.0,0.0,80,0.00,,SCT120,0.00,VWS V14.01,2013-02-07 09:47:00,
2013-02-07 05:52:00,69.3,62.8,29.97,NNE,19,0.0,0.0,80,0.00,,SCT120,0.00,VWS V14.01,2013-02-07 09:52:00,
2013-02-07 05:57:00,69.1,62.7,29.97,NNE,19,0.0,0.0,80,0.00,,SCT120,0.00,VWS V14.01,2013-02-07 09:57:00,
2013-02-07 06:02:00,68.9,62.5,29.97,NNE,19,0.0,0.0,80,0.00,,SCT120,0.00,VWS V14.01,2013-02-07 10:02:00,
2013-02-07 06:07:00,68.7,62.0,29.97,NNE,19,0.0,0.0,79,0.00,,SCT120,0.00,VWS V14.01,2013-02-07 10:07:00,
2013-02-07 06:12:00,68.7,62.3,29.97,NNE,19,0.0,0.0,80,0.00,,SCT120,0.00,VWS V14.01,2013-02-07 10:12:00,
2013-02-07 06:17:00,68.7,62.3,29.97,NNE,19,0.0,0.0,80,0.00,,SCT120,0.00,VWS V14.01,2013-02-07 10:17:00,
2013-02-07 06:22:00,68.9,62.8,29.97,NNE,19,0.0,0.0,81,0.00,,SCT120,0.00,VWS V14.01,2013-02-07 10:22:00,
2013-02-07 06:27:00,69.1,63.0,29.97,NNE,19,0.0,0.0,81,0.00,,SCT120,0.00,VWS V14.01,2013-02-07 10:27:00,
2013-02-07 06:32:00,69.1,63.0,29.97,NNE,19,0.0,0.0,81,0.00,,SCT120,0.00,VWS V14.01,2013-02-07 10:32:00,
2013-02-07 06:37:00,68.9,62.8,29.97,NNE,19,0.0,0.0,81,0.00,,SCT120,0.00,VWS V14.01,2013-02-07 10:37:00,
2013-02-07 06:42:00,68.7,62.3,29.97,NNE,19,0.0,0.0,80,0.00,,SCT120,0.00,VWS V14.01,2013-02-07 10:42:00,
2013-02-07 06:47:00,68.9,62.5,29.97,NNE,19,0.0,0.0,80,0.00,,SCT120,0.00,VWS V14.01,2013-02-07 10:47:00,
2013-02-07 06:52:00,69.1,63.0,29.97,NNE,19,0.0,0.0,81,0.00,,SCT120,0.00,VWS V14.01,2013-02-07 10:52:00,
2013-02-07 06:57:00,69.1,63.0,29.97,NNE,19,0.0,0.0,81,0.00,,SCT120,0.00,VWS V14.01,2013-02-07 10:57:00,
2013-02-07 07:02:00,68.9,62.5,29.97,NNE,19,0.0,0.0,80,0.00,,SCT120,0.00,VWS V14.01,2013-02-07 11:02:00,
2013-02-07 07:07:00,68.7,62.3,29.97,NNE,19,0.0,0.0,80,0.00,,SCT120,0.00,VWS V14.01,2013-02-07 11:07:00,
2013-02-07 07:12:00,68.7,62.3,29.97,NNE,19,0.0,0.0,80,0.00,,SCT120,0.00,VWS V14.01,2013-02-07 11:12:00,
2013-02-07 07:17:00,68.7,62.3,29.97,NNE,19,0.0,0.0,80,0.00,,SCT120,0.00,VWS V14.01,2013-02-07 11:17:00,
2013-02-07 07:22:00,68.9,62.5,29.97,NNE,19,0.0,0.0,80,0.00,,SCT120,0.00,VWS V14.01,2013-02-07 11:22:00,
2013-02-07 07:27:00,69.1,62.7,29.97,NNE,19,0.0,0.0,80,0.00,,SCT120,0.00,VWS V14.01,2013-02-07 11:27:00,
2013-02-07 07:32:00,69.3,62.8,29.97,NNE,19,0.0,0.0,80,0.00,,SCT120,0.00,VWS V14.01,2013-02-07 11:32:00,
2013-02-07 07:37:00,69.4,63.4,30.00,NNE,19,0.0,0.0,81,0.00,,SCT120,0.00,VWS V14.01,2013-02-07 11:37:00,
2013-02-07 07:42:00,69.8,63.4,30.00,NNE,19,0.0,0.0,80,0.00,,SCT120,0.00,VWS V14.01,2013-02-07 11:42:00,
2013-02-07 07:47:00,70.0,63.5,30.00,NNE,19,0.0,0.0,80,0.00,,SCT120,0.00,VWS V14.01,2013-02-07 11:47:00,
2013-02-07 07:52:00,70.2,63.7,30.00,NNE,19,0.0,0.0,80,0.00,,SCT120,0.00,VWS V14.01,2013-02-07 11:52:00,
2013-02-07 07:57:00,70.5,64.1,30.00,NNE,19,0.0,0.0,80,0.00,,SCT120,0.00,VWS V14.01,2013-02-07 11:57:00,
2013-02-07 08:02:00,70.9,64.4,30.00,NNE,19,0.0,0.0,80,0.00,,SCT120,0.00,VWS V14.01,2013-02-07 12:02:00,
2013-02-07 08:07:00,71.2,64.8,30.00,NNE,19,0.0,0.0,80,0.00,,SCT120,0.00,VWS V14.01,2013-02-07 12:07:00,
2013-02-07 08:12:00,71.6,65.1,30.00,NNE,19,0.0,0.0,80,0.00,,SCT120,0.00,VWS V14.01,2013-02-07 12:12:00,
2013-02-07 08:17:00,72.1,65.3,30.00,NNE,19,0.0,0.0,79,0.00,,SCT120,0.00,VWS V14.01,2013-02-07 12:17:00,
2013-02-07 08:22:00,72.5,65.6,30.00,NNE,19,0.0,0.0,79,0.00,,SCT120,0.00,VWS V14.01,2013-02-07 12:22:00,
2013-02-07 08:27:00,72.9,66.0,30.00,NNE,19,0.0,0.0,79,0.00,,SCT120,0.00,VWS V14.01,2013-02-07 12:27:00,
2013-02-07 08:32:00,73.4,65.8,30.00,NNE,19,0.0,0.0,77,0.00,,SCT120,0.00,VWS V14.01,2013-02-07 12:32:00,
2013-02-07 08:37:00,73.9,65.9,30.00,NNE,19,0.0,0.0,76,0.00,,SCT120,0.00,VWS V14.01,2013-02-07 12:37:00,
2013-02-07 08:42:00,74.5,65.7,30.00,NNE,19,0.0,0.0,74,0.00,,SCT120,0.00,VWS V14.01,2013-02-07 12:42:00,
2013-02-07 08:47:00,74.8,65.6,30.00,NNE,19,0.0,0.0,73,0.00,,SCT120,0.00,VWS V14.01,2013-02-07 12:47:00,
2013-02-07 08:52:00,75.4,65.3,30.00,NNE,19,0.0,0.0,71,0.00,,SCT120,0.00,VWS V14.01,2013-02-07 12:52:00,
2013-02-07 08:57:00,75.7,64.0,30.00,NNE,19,0.0,0.0,67,0.00,,SCT120,0.00,VWS V14.01,2013-02-07 12:57:00,
2013-02-07 09:02:00,76.1,63.9,30.00,NNE,19,0.0,0.0,66,0.00,,SCT120,0.00,VWS V14.01,2013-02-07 13:02:00,
2013-02-07 09:07:00,76.5,62.9,30.00,NNE,19,0.0,0.0,63,0.00,,SCT120,0.00,VWS V14.01,2013-02-07 13:07:00,
2013-02-07 09:12:00,76.8,62.8,30.00,NNE,19,0.0,0.0,62,0.00,,SCT120,0.00,VWS V14.01,2013-02-07 13:12:00,
2013-02-07 09:17:00,77.5,62.6,30.00,NNE,19,0.0,0.0,60,0.00,,SCT120,0.00,VWS V14.01,2013-02-07 13:17:00,
2013-02-07 09:22:00,77.9,61.5,30.00,NNE,19,0.0,0.0,57,0.00,,SCT120,0.00,VWS V14.01,2013-02-07 13:22:00,
2013-02-07 09:27:00,78.3,60.3,30.00,NNE,19,0.0,0.0,54,0.00,,SCT120,0.00,VWS V14.01,2013-02-07 13:27:00,
2013-02-07 09:32:00,78.6,60.1,30.00,NNE,19,0.0,0.0,53,0.00,,SCT120,0.00,VWS V14.01,2013-02-07 13:32:00,
2013-02-07 09:37:00,79.0,58.2,30.00,NNE,19,0.0,0.0,49,0.00,,SCT120,0.00,VWS V14.01,2013-02-07 13:37:00,
2013-02-07 09:42:00,79.3,58.0,30.00,NNE,19,0.0,0.0,48,0.00,,SCT120,0.00,VWS V14.01,2013-02-07 13:42:00,
2013-02-07 09:47:00,79.7,58.3,30.00,NNE,19,0.0,0.0,48,0.00,,SCT120,0.00,VWS V14.01,2013-02-07 13:47:00,
2013-02-07 09:52:00,80.1,56.2,30.00,NNE,19,0.0,0.0,44,0.00,,SCT120,0.00,VWS V14.01,2013-02-07 13:52:00,
2013-02-07 09:57:00,80.4,57.2,30.00,NNE,19,0.0,0.0,45,0.00,,SCT120,0.00,VWS V14.01,2013-02-07 13:57:00,
2013-02-07 10:02:00,81.0,57.0,30.00,NNE,19,0.0,0.0,44,0.00,,SCT120,0.00,VWS V14.01,2013-02-07 14:02:00,
2013-02-07 10:07:00,81.3,56.1,30.00,NNE,19,0.0,0.0,42,0.00,,SCT120,0.00,VWS V14.01,2013-02-07 14:07:00,
2013-02-07 10:12:00,81.3,54.0,30.00,NNE,19,0.0,0.0,39,0.00,,SCT120,0.00,VWS V14.01,2013-02-07 14:12:00,
2013-02-07 10:17:00,81.5,52.0,30.00,NNE,19,0.0,0.0,36,0.00,,SCT120,0.00,VWS V14.01,2013-02-07 14:17:00,
2013-02-07 10:22:00,81.5,51.2,30.00,NNE,19,0.0,0.0,35,0.00,,SCT120,0.00,VWS V14.01,2013-02-07 14:22:00,
2013-02-07 10:27:00,82.0,49.3,30.00,NNE,19,0.0,0.0,32,0.00,,SCT120,0.00,VWS V14.01,2013-02-07 14:27:00,
2013-02-07 10:32:00,82.0,47.6,30.00,NNE,19,0.0,0.0,30,0.00,,SCT120,0.00,VWS V14.01,2013-02-07 14:32:00,
2013-02-07 10:37:00,82.4,47.9,30.00,NNE,19,0.0,0.0,30,0.00,,SCT120,0.00,VWS V14.01,2013-02-07 14:37:00,
2013-02-07 10:42:00,82.8,47.3,30.00,NNE,19,0.0,0.0,29,0.00,,SCT120,0.00,VWS V14.01,2013-02-07 14:42:00,
2013-02-07 10:47:00,83.1,47.6,30.00,NNE,19,0.0,0.0,29,0.00,,SCT120,0.00,VWS V14.01,2013-02-07 14:47:00,
2013-02-07 10:52:00,82.9,47.5,30.00,NNE,19,0.0,0.0,29,0.00,,SCT120,0.00,VWS V14.01,2013-02-07 14:52:00,
2013-02-07 10:57:00,82.8,47.3,30.00,NNE,19,0.0,0.0,29,0.00,,SCT120,0.00,VWS V14.01,2013-02-07 14:57:00,
2013-02-07 11:02:00,83.5,47.0,30.00,NNE,19,0.0,0.0,28,0.00,,SCT120,0.00,VWS V14.01,2013-02-07 15:02:00,
2013-02-07 11:07:00,84.0,45.5,29.97,NNE,19,0.0,0.0,26,0.00,,SCT120,0.00,VWS V14.01,2013-02-07 15:07:00,
2013-02-07 11:12:00,84.7,45.1,29.97,NNE,19,0.0,0.0,25,0.00,,SCT120,0.00,VWS V14.01,2013-02-07 15:12:00,
2013-02-07 11:17:00,84.6,44.9,29.97,NNE,19,0.0,0.0,25,0.00,,SCT120,0.00,VWS V14.01,2013-02-07 15:17:00,
2013-02-07 11:22:00,84.9,43.0,29.97,NNE,19,0.0,0.0,23,0.00,,SCT120,0.00,VWS V14.01,2013-02-07 15:22:00,
2013-02-07 11:27:00,85.8,41.4,29.97,NNE,19,0.0,0.0,21,0.00,,SCT120,0.00,VWS V14.01,2013-02-07 15:27:00,
2013-02-07 11:32:00,86.2,39.1,29.97,NNE,19,0.0,0.0,19,0.00,,SCT120,0.00,VWS V14.01,2013-02-07 15:32:00,
2013-02-07 11:37:00,86.2,39.1,29.97,NNE,19,0.0,0.0,19,0.00,,SCT120,0.00,VWS V14.01,2013-02-07 15:37:00,
2013-02-07 11:43:00,87.1,38.5,29.97,NNE,19,0.0,0.0,18,0.00,,SCT120,0.00,VWS V14.01,2013-02-07 15:43:00,
2013-02-07 11:48:00,87.1,38.5,29.97,NNE,19,0.0,0.0,18,0.00,,SCT120,0.00,VWS V14.01,2013-02-07 15:48:00,
2013-02-07 11:53:00,86.7,38.2,29.97,NNE,19,0.0,0.0,18,0.00,,SCT120,0.00,VWS V14.01,2013-02-07 15:53:00,
2013-02-07 11:58:00,86.7,39.6,29.97,NNE,19,0.0,0.0,19,0.00,,SCT120,0.00,VWS V14.01,2013-02-07 15:58:00,
2013-02-07 12:03:00,86.0,39.0,29.97,NNE,19,0.0,0.0,19,0.00,,SCT120,0.00,VWS V14.01,2013-02-07 16:03:00,
2013-02-07 12:08:00,85.5,39.9,29.97,NNE,19,0.0,0.0,20,0.00,,SCT120,0.00,VWS V14.01,2013-02-07 16:08:00,
2013-02-07 12:13:00,84.7,39.3,29.97,NNE,19,0.0,0.0,20,0.00,,SCT120,0.00,VWS V14.01,2013-02-07 16:13:00,
2013-02-07 12:18:00,84.2,40.1,29.97,NNE,19,0.0,0.0,21,0.00,,SCT120,0.00,VWS V14.01,2013-02-07 16:18:00,
2013-02-07 12:23:00,84.0,42.3,29.97,NNE,19,0.0,0.0,23,0.00,,SCT120,0.00,VWS V14.01,2013-02-07 16:23:00,
2013-02-07 12:28:00,83.7,39.6,29.97,NNE,19,0.0,0.0,21,0.00,,SCT120,0.00,VWS V14.01,2013-02-07 16:28:00,
2013-02-07 12:33:00,83.1,40.4,29.97,NNE,19,0.0,0.0,22,0.00,,SCT120,0.00,VWS V14.01,2013-02-07 16:33:00,
2013-02-07 12:38:00,82.8,40.1,29.94,NNE,19,0.0,0.0,22,0.00,,SCT120,0.00,VWS V14.01,2013-02-07 16:38:00,
2013-02-07 12:43:00,82.6,41.1,29.94,NNE,19,0.0,0.0,23,0.00,,SCT120,0.00,VWS V14.01,2013-02-07 16:43:00,
2013-02-07 12:48:00,82.6,42.2,29.94,NNE,19,0.0,0.0,24,0.00,,SCT120,0.00,VWS V14.01,2013-02-07 16:48:00,
2013-02-07 12:53:00,82.6,44.3,29.94,NNE,19,0.0,0.0,26,0.00,,SCT120,0.00,VWS V14.01,2013-02-07 16:53:00,
2013-02-07 12:58:00,82.4,47.0,29.94,NNE,19,0.0,0.0,29,0.00,,SCT120,0.00,VWS V14.01,2013-02-07 16:58:00,
2013-02-07 13:03:00,82.2,47.7,29.94,NNE,19,0.0,0.0,30,0.00,,SCT120,0.00,VWS V14.01,2013-02-07 17:03:00,
2013-02-07 13:08:00,82.0,48.5,29.94,NNE,19,0.0,0.0,31,0.00,,SCT120,0.00,VWS V14.01,2013-02-07 17:08:00,
2013-02-07 13:13:00,82.2,49.5,29.94,NNE,19,0.0,0.0,32,0.00,,SCT120,0.00,VWS V14.01,2013-02-07 17:13:00,
2013-02-07 13:18:00,82.4,49.6,29.94,NNE,19,0.0,0.0,32,0.00,,SCT120,0.00,VWS V14.01,2013-02-07 17:18:00,
2013-02-07 13:23:00,82.0,48.5,29.94,NNE,19,0.0,0.0,31,0.00,,SCT120,0.00,VWS V14.01,2013-02-07 17:23:00,
2013-02-07 13:28:00,82.2,47.7,29.94,NNE,19,0.0,0.0,30,0.00,,SCT120,0.00,VWS V14.01,2013-02-07 17:28:00,
2013-02-07 13:33:00,82.4,47.9,29.94,NNE,19,0.0,0.0,30,0.00,,SCT120,0.00,VWS V14.01,2013-02-07 17:33:00,
2013-02-07 13:38:00,82.6,48.0,29.94,NNE,19,0.0,0.0,30,0.00,,SCT120,0.00,VWS V14.01,2013-02-07 17:38:00,
2013-02-07 13:43:00,83.1,47.6,29.94,NNE,19,0.0,0.0,29,0.00,,SCT120,0.00,VWS V14.01,2013-02-07 17:43:00,
2013-02-07 13:48:00,84.4,48.7,29.94,NNE,19,0.0,0.0,29,0.00,,SCT120,0.00,VWS V14.01,2013-02-07 17:48:00,
2013-02-07 13:53:00,85.8,44.9,29.91,NNE,19,0.0,0.0,24,0.00,,SCT120,0.00,VWS V14.01,2013-02-07 17:53:00,
2013-02-07 13:58:00,86.5,44.4,29.91,NNE,19,0.0,0.0,23,0.00,,SCT120,0.00,VWS V14.01,2013-02-07 17:58:00,
2013-02-07 14:03:00,86.2,45.2,29.91,NNE,19,0.0,0.0,24,0.00,,SCT120,0.00,VWS V14.01,2013-02-07 18:03:00,
2013-02-07 14:08:00,86.0,46.1,29.91,NNE,19,0.0,0.0,25,0.00,,SCT120,0.00,VWS V14.01,2013-02-07 18:08:00,
2013-02-07 14:13:00,85.6,47.9,29.91,NNE,19,0.0,0.0,27,0.00,,SCT120,0.00,VWS V14.01,2013-02-07 18:13:00,
2013-02-07 14:18:00,85.5,48.7,29.91,NNE,19,0.0,0.0,28,0.00,,SCT120,0.00,VWS V14.01,2013-02-07 18:18:00,
2013-02-07 14:23:00,85.1,46.4,29.91,NNE,19,0.0,0.0,26,0.00,,SCT120,0.00,VWS V14.01,2013-02-07 18:23:00,
2013-02-07 14:28:00,83.8,48.2,29.91,NNE,19,0.0,0.0,29,0.00,,SCT120,0.00,VWS V14.01,2013-02-07 18:28:00,
2013-02-07 14:33:00,83.5,47.9,29.91,NNE,19,0.0,0.0,29,0.00,,SCT120,0.00,VWS V14.01,2013-02-07 18:33:00,
2013-02-07 14:38:00,83.7,48.1,29.91,NNE,19,0.0,0.0,29,0.00,,SCT120,0.00,VWS V14.01,2013-02-07 18:38:00,
2013-02-07 14:43:00,84.4,47.8,29.91,NNE,19,0.0,0.0,28,0.00,,SCT120,0.00,VWS V14.01,2013-02-07 18:43:00,
2013-02-07 14:48:00,85.1,45.4,29.91,NNE,19,0.0,0.0,25,0.00,,SCT120,0.00,VWS V14.01,2013-02-07 18:48:00,
2013-02-07 14:53:00,85.3,45.5,29.91,NNE,19,0.0,0.0,25,0.00,,SCT120,0.00,VWS V14.01,2013-02-07 18:53:00,
2013-02-07 14:58:00,84.6,44.9,29.91,NNE,19,0.0,0.0,25,0.00,,SCT120,0.00,VWS V14.01,2013-02-07 18:58:00,
2013-02-07 15:03:00,84.4,47.8,29.91,NNE,19,0.0,0.0,28,0.00,,SCT120,0.00,VWS V14.01,2013-02-07 19:03:00,
2013-02-07 15:08:00,84.2,48.5,29.91,NNE,19,0.0,0.0,29,0.00,,SCT120,0.00,VWS V14.01,2013-02-07 19:08:00,
2013-02-07 15:13:00,84.6,47.9,29.91,NNE,19,0.0,0.0,28,0.00,,SCT120,0.00,VWS V14.01,2013-02-07 19:13:00,
2013-02-07 15:18:00,85.5,45.7,29.91,NNE,19,0.0,0.0,25,0.00,,SCT120,0.00,VWS V14.01,2013-02-07 19:18:00,
2013-02-07 15:23:00,85.3,45.5,29.91,NNE,19,0.0,0.0,25,0.00,,SCT120,0.00,VWS V14.01,2013-02-07 19:23:00,
2013-02-07 15:28:00,84.7,45.1,29.91,NNE,19,0.0,0.0,25,0.00,,SCT120,0.00,VWS V14.01,2013-02-07 19:28:00,
2013-02-07 15:33:00,85.3,45.5,29.91,NNE,19,0.0,0.0,25,0.00,,SCT120,0.00,VWS V14.01,2013-02-07 19:33:00,
2013-02-07 15:38:00,86.2,42.9,29.91,NNE,19,0.0,0.0,22,0.00,,SCT120,0.00,VWS V14.01,2013-02-07 19:38:00,
2013-02-07 15:43:00,86.0,43.9,29.91,NNE,19,0.0,0.0,23,0.00,,SCT120,0.00,VWS V14.01,2013-02-07 19:43:00,
2013-02-07 15:48:00,85.6,45.8,29.91,NNE,19,0.0,0.0,25,0.00,,SCT120,0.00,VWS V14.01,2013-02-07 19:48:00,
2013-02-07 15:53:00,86.2,46.3,29.91,NNE,19,0.0,0.0,25,0.00,,SCT120,0.00,VWS V14.01,2013-02-07 19:53:00,
2013-02-07 15:58:00,85.8,48.0,29.91,NNE,19,0.0,0.0,27,0.00,,SCT120,0.00,VWS V14.01,2013-02-07 19:58:00,
2013-02-07 16:03:00,85.3,48.5,29.91,NNE,19,0.0,0.0,28,0.00,,SCT120,0.00,VWS V14.01,2013-02-07 20:03:00,
2013-02-07 16:08:00,84.2,47.6,29.88,NNE,19,0.0,0.0,28,0.00,,SCT120,0.00,VWS V14.01,2013-02-07 20:08:00,
2013-02-07 16:13:00,83.8,48.2,29.88,NNE,19,0.0,0.0,29,0.00,,SCT120,0.00,VWS V14.01,2013-02-07 20:13:00,
2013-02-07 16:18:00,83.7,49.0,29.88,NNE,19,0.0,0.0,30,0.00,,SCT120,0.00,VWS V14.01,2013-02-07 20:18:00,
2013-02-07 16:23:00,83.8,49.1,29.91,NNE,19,0.0,0.0,30,0.00,,SCT120,0.00,VWS V14.01,2013-02-07 20:23:00,
2013-02-07 16:28:00,84.2,48.5,29.91,NNE,19,0.0,0.0,29,0.00,,SCT120,0.00,VWS V14.01,2013-02-07 20:28:00,
2013-02-07 16:33:00,84.6,48.8,29.91,NNE,19,0.0,0.0,29,0.00,,SCT120,0.00,VWS V14.01,2013-02-07 20:33:00,
2013-02-07 16:38:00,84.4,48.7,29.91,NNE,19,0.0,0.0,29,0.00,,SCT120,0.00,VWS V14.01,2013-02-07 20:38:00,
2013-02-07 16:43:00,84.6,48.8,29.91,NNE,19,0.0,0.0,29,0.00,,SCT120,0.00,VWS V14.01,2013-02-07 20:43:00,
2013-02-07 16:48:00,83.8,48.2,29.91,NNE,19,0.0,0.0,29,0.00,,SCT120,0.00,VWS V14.01,2013-02-07 20:48:00,
2013-02-07 16:53:00,83.7,49.0,29.91,NNE,19,0.0,0.0,30,0.00,,SCT120,0.00,VWS V14.01,2013-02-07 20:53:00,
2013-02-07 16:58:00,84.0,49.3,29.91,NNE,19,0.0,0.0,30,0.00,,SCT120,0.00,VWS V14.01,2013-02-07 20:58:00,
2013-02-07 17:03:00,83.8,49.1,29.91,NNE,19,0.0,0.0,30,0.00,,SCT120,0.00,VWS V14.01,2013-02-07 21:03:00,
2013-02-07 17:08:00,83.5,48.8,29.91,NNE,19,0.0,0.0,30,0.00,,SCT120,0.00,VWS V14.01,2013-02-07 21:08:00,
2013-02-07 17:13:00,83.5,49.7,29.91,NNE,19,0.0,0.0,31,0.00,,SCT120,0.00,VWS V14.01,2013-02-07 21:13:00,
2013-02-07 17:18:00,83.7,49.8,29.91,NNE,19,0.0,0.0,31,0.00,,SCT120,0.00,VWS V14.01,2013-02-07 21:18:00,
2013-02-07 17:23:00,83.7,49.0,29.91,NNE,19,0.0,0.0,30,0.00,,SCT120,0.00,VWS V14.01,2013-02-07 21:23:00,
2013-02-07 17:28:00,83.5,49.7,29.91,NNE,19,0.0,0.0,31,0.00,,SCT120,0.00,VWS V14.01,2013-02-07 21:28:00,
2013-02-07 17:33:00,83.3,49.5,29.91,NNE,19,0.0,0.0,31,0.00,,SCT120,0.00,VWS V14.01,2013-02-07 21:33:00,
2013-02-07 17:38:00,82.9,50.1,29.91,NNE,19,0.0,0.0,32,0.00,,SCT120,0.00,VWS V14.01,2013-02-07 21:38:00,
2013-02-07 17:43:00,82.6,49.8,29.91,NNE,19,0.0,0.0,32,0.00,,SCT120,0.00,VWS V14.01,2013-02-07 21:43:00,
2013-02-07 17:48:00,82.2,50.3,29.91,NNE,19,0.0,0.0,33,0.00,,SCT120,0.00,VWS V14.01,2013-02-07 21:48:00,
2013-02-07 17:53:00,82.0,51.7,29.91,NNE,19,0.0,0.0,35,0.00,,SCT120,0.00,VWS V14.01,2013-02-07 21:53:00,
2013-02-07 17:58:00,81.7,52.2,29.91,NNE,19,0.0,0.0,36,0.00,,SCT120,0.00,VWS V14.01,2013-02-07 21:58:00,
2013-02-07 18:03:00,81.3,53.3,29.91,NNE,19,0.0,0.0,38,0.00,,SCT120,0.00,VWS V14.01,2013-02-07 22:03:00,
2013-02-07 18:08:00,81.0,53.7,29.91,NNE,19,0.0,0.0,39,0.00,,SCT120,0.00,VWS V14.01,2013-02-07 22:08:00,
2013-02-07 18:13:00,80.8,53.5,29.91,NNE,19,0.0,0.0,39,0.00,,SCT120,0.00,VWS V14.01,2013-02-07 22:13:00,
2013-02-07 18:18:00,80.4,53.9,29.91,NNE,19,0.0,0.0,40,0.00,,SCT120,0.00,VWS V14.01,2013-02-07 22:18:00,
2013-02-07 18:23:00,80.2,54.4,29.91,NNE,19,0.0,0.0,41,0.00,,SCT120,0.00,VWS V14.01,2013-02-07 22:23:00,
2013-02-07 18:28:00,80.1,54.9,29.91,NNE,19,0.0,0.0,42,0.00,,SCT120,0.00,VWS V14.01,2013-02-07 22:28:00,
2013-02-07 18:33:00,80.1,54.9,29.91,NNE,19,0.0,0.0,42,0.00,,SCT120,0.00,VWS V14.01,2013-02-07 22:33:00,
2013-02-07 18:38:00,79.9,55.4,29.91,NNE,19,0.0,0.0,43,0.00,,SCT120,0.00,VWS V14.01,2013-02-07 22:38:00,
2013-02-07 18:43:00,79.7,55.2,29.91,NNE,19,0.0,0.0,43,0.00,,SCT120,0.00,VWS V14.01,2013-02-07 22:43:00,
2013-02-07 18:48:00,79.5,55.7,29.91,NNE,19,0.0,0.0,44,0.00,,SCT120,0.00,VWS V14.01,2013-02-07 22:48:00,
2013-02-07 18:53:00,79.5,56.3,29.91,NNE,19,0.0,0.0,45,0.00,,SCT120,0.00,VWS V14.01,2013-02-07 22:53:00,
2013-02-07 18:58:00,79.3,56.8,29.91,NNE,19,0.0,0.0,46,0.00,,SCT120,0.00,VWS V14.01,2013-02-07 22:58:00,
2013-02-07 19:03:00,79.2,57.2,29.91,NNE,19,0.0,0.0,47,0.00,,SCT120,0.00,VWS V14.01,2013-02-07 23:03:00,
2013-02-07 19:08:00,79.2,57.2,29.91,NNE,19,0.0,0.0,47,0.00,,SCT120,0.00,VWS V14.01,2013-02-07 23:08:00,
2013-02-07 19:14:00,79.2,57.2,29.91,NNE,19,0.0,0.0,47,0.00,,SCT120,0.00,VWS V14.01,2013-02-07 23:14:00,
2013-02-07 19:19:00,79.2,57.2,29.91,NNE,19,0.0,0.0,47,0.00,,SCT120,0.00,VWS V14.01,2013-02-07 23:19:00,
2013-02-07 19:24:00,79.3,57.4,29.94,NNE,19,0.0,0.0,47,0.00,,SCT120,0.00,VWS V14.01,2013-02-07 23:24:00,
2013-02-07 19:29:00,79.2,57.2,29.94,NNE,19,0.0,0.0,47,0.00,,SCT120,0.00,VWS V14.01,2013-02-07 23:29:00,
2013-02-07 19:34:00,79.0,55.8,29.94,NNE,19,0.0,0.0,45,0.00,,SCT120,0.00,VWS V14.01,2013-02-07 23:34:00,
2013-02-07 19:39:00,78.8,54.4,29.94,NNE,19,0.0,0.0,43,0.00,,SCT120,0.00,VWS V14.01,2013-02-07 23:39:00,
2013-02-07 19:44:00,78.6,55.5,29.94,NNE,19,0.0,0.0,45,0.00,,SCT120,0.00,VWS V14.01,2013-02-07 23:44:00,
2013-02-07 19:49:00,78.4,56.0,29.94,NNE,19,0.0,0.0,46,0.00,,SCT120,0.00,VWS V14.01,2013-02-07 23:49:00,
2013-02-07 19:54:00,78.3,56.4,29.94,NNE,19,0.0,0.0,47,0.00,,SCT120,0.00,VWS V14.01,2013-02-07 23:54:00,
2013-02-07 19:59:00,78.1,56.2,29.94,NNE,19,0.0,0.0,47,0.00,,SCT120,0.00,VWS V14.01,2013-02-07 23:59:00,
2013-02-07 20:04:00,78.1,56.2,29.94,NNE,19,0.0,0.0,47,0.00,,SCT120,0.00,VWS V14.01,2013-02-08 00:04:00,
2013-02-07 20:09:00,78.1,56.2,29.94,NNE,19,0.0,0.0,47,0.00,,SCT120,0.00,VWS V14.01,2013-02-08 00:09:00,
2013-02-07 20:14:00,78.1,57.4,29.94,NNE,19,0.0,0.0,49,0.00,,SCT120,0.00,VWS V14.01,2013-02-08 00:14:00,
2013-02-07 20:19:00,77.7,59.8,29.94,NNE,19,0.0,0.0,54,0.00,,SCT120,0.00,VWS V14.01,2013-02-08 00:19:00,
2013-02-07 20:24:00,77.7,62.3,29.97,NNE,19,0.0,0.0,59,0.00,,SCT120,0.00,VWS V14.01,2013-02-08 00:24:00,
2013-02-07 20:29:00,77.7,63.7,29.97,NNE,19,0.0,0.0,62,0.00,,SCT120,0.00,VWS V14.01,2013-02-08 00:29:00,
2013-02-07 20:34:00,77.7,64.6,29.97,NNE,19,0.0,0.0,64,0.00,,SCT120,0.00,VWS V14.01,2013-02-08 00:34:00,
2013-02-07 20:39:00,77.5,65.3,29.97,NNE,19,0.0,0.0,66,0.00,,SCT120,0.00,VWS V14.01,2013-02-08 00:39:00,
2013-02-07 20:44:00,77.2,64.9,29.97,NNE,19,0.0,0.0,66,0.00,,SCT120,0.00,VWS V14.01,2013-02-08 00:44:00,
2013-02-07 20:49:00,76.8,65.5,29.97,NNE,19,0.0,0.0,68,0.08,,SCT120,0.08,VWS V14.01,2013-02-08 00:49:00,
2013-02-07 20:54:00,76.5,65.5,29.97,NNE,19,0.0,0.0,69,0.12,,SCT120,0.12,VWS V14.01,2013-02-08 00:54:00,
2013-02-07 20:59:00,76.3,65.8,29.97,NNE,19,0.0,0.0,70,0.16,,SCT120,0.16,VWS V14.01,2013-02-08 00:59:00,
2013-02-07 21:04:00,76.1,66.4,29.97,NNE,19,0.0,0.0,72,0.20,,SCT120,0.20,VWS V14.01,2013-02-08 01:04:00,
2013-02-07 21:09:00,76.3,66.6,29.97,NNE,19,0.0,0.0,72,0.20,,SCT120,0.20,VWS V14.01,2013-02-08 01:09:00,
2013-02-07 21:14:00,76.3,67.0,29.97,NNE,19,0.0,0.0,73,0.24,,SCT120,0.24,VWS V14.01,2013-02-08 01:14:00,
2013-02-07 21:19:00,76.5,67.2,29.97,NNE,19,0.0,0.0,73,0.24,,SCT120,0.24,VWS V14.01,2013-02-08 01:19:00,
2013-02-07 21:24:00,76.5,67.2,29.97,NNE,19,0.0,0.0,73,0.24,,SCT120,0.24,VWS V14.01,2013-02-08 01:24:00,
2013-02-07 21:29:00,76.6,67.7,29.97,NNE,19,0.0,0.0,74,0.24,,SCT120,0.24,VWS V14.01,2013-02-08 01:29:00,
2013-02-07 21:34:00,76.6,67.7,29.97,NNE,19,0.0,0.0,74,0.24,,SCT120,0.24,VWS V14.01,2013-02-08 01:34:00,
2013-02-07 21:39:00,76.6,67.7,29.97,NNE,19,0.0,0.0,74,0.24,,SCT120,0.24,VWS V14.01,2013-02-08 01:39:00,
2013-02-07 21:44:00,76.6,67.7,29.97,NNE,19,0.0,0.0,74,0.24,,SCT120,0.24,VWS V14.01,2013-02-08 01:44:00,
2013-02-07 21:49:00,76.6,67.7,29.97,NNE,19,0.0,0.0,74,0.24,,SCT120,0.24,VWS V14.01,2013-02-08 01:49:00,
2013-02-07 21:54:00,76.5,67.6,29.97,NNE,19,0.0,0.0,74,0.24,,SCT120,0.24,VWS V14.01,2013-02-08 01:54:00,
2013-02-07 21:59:00,76.5,67.6,29.97,NNE,19,0.0,0.0,74,0.24,,SCT120,0.24,VWS V14.01,2013-02-08 01:59:00,
2013-02-07 22:04:00,76.1,67.2,29.97,NNE,19,0.0,0.0,74,0.08,,SCT120,0.24,VWS V14.01,2013-02-08 02:04:00,
2013-02-07 22:09:00,75.9,67.0,29.97,NNE,19,0.0,0.0,74,0.08,,SCT120,0.24,VWS V14.01,2013-02-08 02:09:00,
2013-02-07 22:14:00,75.7,66.9,29.97,NNE,19,0.0,0.0,74,0.08,,SCT120,0.24,VWS V14.01,2013-02-08 02:14:00,
2013-02-07 22:19:00,75.7,66.9,29.97,NNE,19,0.0,0.0,74,0.08,,SCT120,0.24,VWS V14.01,2013-02-08 02:19:00,
2013-02-07 22:24:00,75.6,66.7,29.97,NNE,19,0.0,0.0,74,0.00,,SCT120,0.24,VWS V14.01,2013-02-08 02:24:00,
2013-02-07 22:29:00,75.6,66.7,29.97,NNE,19,0.0,0.0,74,0.00,,SCT120,0.24,VWS V14.01,2013-02-08 02:29:00,
2013-02-07 22:34:00,75.6,67.1,29.97,NNE,19,0.0,0.0,75,0.00,,SCT120,0.24,VWS V14.01,2013-02-08 02:34:00,
2013-02-07 22:39:00,75.6,67.1,30.00,NNE,19,0.0,0.0,75,0.00,,SCT120,0.24,VWS V14.01,2013-02-08 02:39:00,
2013-02-07 22:44:00,75.6,67.1,30.00,NNE,19,0.0,0.0,75,0.00,,SCT120,0.24,VWS V14.01,2013-02-08 02:44:00,
2013-02-07 22:49:00,75.4,67.3,30.00,NNE,19,0.0,0.0,76,0.00,,SCT120,0.24,VWS V14.01,2013-02-08 02:49:00,
2013-02-07 22:54:00,75.4,67.3,30.00,NNE,19,0.0,0.0,76,0.00,,SCT120,0.24,VWS V14.01,2013-02-08 02:54:00,
2013-02-07 22:59:00,75.4,67.7,30.00,NNE,19,0.0,0.0,77,0.00,,SCT120,0.24,VWS V14.01,2013-02-08 02:59:00,
2013-02-07 23:04:00,75.2,67.5,30.00,NNE,19,0.0,0.0,77,0.00,,SCT120,0.24,VWS V14.01,2013-02-08 03:04:00,
2013-02-07 23:09:00,75.0,67.3,30.00,NNE,19,0.0,0.0,77,0.00,,SCT120,0.24,VWS V14.01,2013-02-08 03:09:00,
2013-02-07 23:14:00,75.0,67.7,30.00,NNE,19,0.0,0.0,78,0.00,,SCT120,0.24,VWS V14.01,2013-02-08 03:14:00,
2013-02-07 23:19:00,75.0,67.7,30.00,NNE,19,0.0,0.0,78,0.00,,SCT120,0.24,VWS V14.01,2013-02-08 03:19:00,
2013-02-07 23:24:00,74.8,67.5,30.00,NNE,19,0.0,0.0,78,0.00,,SCT120,0.24,VWS V14.01,2013-02-08 03:24:00,
2013-02-07 23:29:00,74.8,67.5,30.00,NNE,19,0.0,0.0,78,0.00,,SCT120,0.24,VWS V14.01,2013-02-08 03:29:00,
2013-02-07 23:34:00,75.0,67.7,30.00,NNE,19,0.0,0.0,78,0.00,,SCT120,0.24,VWS V14.01,2013-02-08 03:34:00,
2013-02-07 23:39:00,75.0,67.7,29.97,NNE,19,0.0,0.0,78,0.00,,SCT120,0.24,VWS V14.01,2013-02-08 03:39:00,
2013-02-07 23:44:00,75.0,67.7,29.97,NNE,19,0.0,0.0,78,0.00,,SCT120,0.24,VWS V14.01,2013-02-08 03:44:00,
2013-02-07 23:49:00,75.0,67.7,29.97,NNE,19,0.0,0.0,78,0.00,,SCT120,0.24,VWS V14.01,2013-02-08 03:49:00,
2013-02-07 23:54:00,75.0,67.7,29.97,NNE,19,0.0,0.0,78,0.00,,SCT120,0.24,VWS V14.01,2013-02-08 03:54:00,
2013-02-07 23:59:00,74.8,67.2,29.97,NNE,19,0.0,0.0,77,0.00,,SCT120,0.24,VWS V14.01,2013-02-08 03:59:00,